KC8YVF-1 Weather Reports


Display with metric or nautical units.
time (UTC)temp
F
wind
direction
speed
MPH
gust
MPH
rain 1hr
in
rain 24hr
in
rain mn
in
humidity
%
barometer
mb
20260507031508 49 23 0.0 0.0 0.00 0.00 0.00 53 999.3
20260507031008 49 23 0.0 0.0 0.00 0.00 0.00 52 999.3
20260507030849 49 0 0.0 0.0 0.00 0.00 0.00 52 999.3
20260507030007 49 23 0.0 0.0 0.00 0.00 0.00 51 999.3
20260507025509 49 45 0.0 0.0 0.00 0.00 0.00 50 999.3
20260507025350 49 270 0.0 0.0 0.00 0.00 0.00 50 999.3
20260507025008 49 293 0.0 0.0 0.00 0.00 0.00 50 999.6
20260507024508 50 0 0.0 0.0 0.00 0.00 0.00 50 999.3
20260507023850 50 338 0.0 0.0 0.00 0.00 0.00 50 999.4
20260507023507 50 270 0.0 0.0 0.00 0.00 0.00 50 999.3
20260507023008 50 315 0.0 0.0 0.00 0.00 0.00 50 999.6
20260507022509 50 315 0.0 0.0 0.00 0.00 0.00 50 999.3
20260507022350 50 338 0.0 0.0 0.00 0.00 0.00 50 999.3
20260507022008 50 338 0.0 0.0 0.00 0.00 0.00 50 999.3
20260507021508 50 338 0.0 0.0 0.00 0.00 0.00 49 999.3
20260507021008 50 315 0.0 0.0 0.00 0.00 0.00 49 999.3
20260507020849 50 293 0.0 0.0 0.00 0.00 0.00 49 999.1
20260507020009 50 293 0.0 0.0 0.00 0.00 0.00 48 998.9
20260507015508 51 315 0.0 0.0 0.00 0.00 0.00 48 998.9
20260507015349 51 293 0.0 0.0 0.00 0.00 0.00 48 998.9
20260507014507 51 315 0.0 0.0 0.00 0.00 0.00 47 998.9
20260507014008 51 293 0.0 0.0 0.00 0.00 0.00 47 998.9
20260507013851 51 293 0.0 0.0 0.00 0.00 0.00 47 998.8
20260507012508 51 225 0.0 0.0 0.00 0.00 0.00 47 998.7
20260507012349 51 315 0.0 0.0 0.00 0.00 0.00 47 998.9
20260507012008 51 270 0.0 0.0 0.00 0.00 0.00 47 998.6
20260507011508 51 270 0.0 0.0 0.00 0.00 0.00 46 998.6
20260507011007 51 270 0.0 0.0 0.00 0.00 0.00 46 998.6
20260507010850 51 248 0.0 0.0 0.00 0.00 0.00 46 998.6
20260507010008 51 248 0.0 0.0 0.00 0.00 0.00 46 998.4
20260507005349 51 270 0.0 0.0 0.00 0.00 0.00 46 998.4
20260507005008 51 225 0.0 0.0 0.00 0.00 0.00 46 998.4
20260507004509 51 293 0.0 0.0 0.00 0.00 0.00 47 998.5
20260507003850 51 248 0.0 0.0 0.00 0.00 0.00 47 998.5
20260507003507 51 248 0.0 0.0 0.00 0.00 0.00 47 998.3
20260507002508 52 248 0.0 0.0 0.00 0.00 0.00 47 998.3
20260507002350 52 248 0.0 0.0 0.00 0.00 0.00 47 998.3
20260507001508 52 270 0.0 0.0 0.00 0.00 0.00 47 998.3
20260507001008 52 270 0.0 0.0 0.00 0.00 0.00 47 998.3
20260507000851 52 293 0.0 0.0 0.00 0.00 0.00 47 998.3
20260507000508 52 293 0.0 0.0 0.00 0.00 0.00 47 998.0
20260507000008 52 293 0.0 0.0 0.00 0.00 0.00 47 998.3
20260506235507 52 293 0.0 0.0 0.00 0.00 0.00 47 997.9
20260506235350 52 293 0.0 0.0 0.00 0.00 0.00 47 998.3
20260506235008 52 293 0.0 0.0 0.00 0.00 0.00 46 998.2
20260506234508 52 315 0.0 0.0 0.00 0.00 0.00 46 998.3
20260506233851 52 270 0.0 0.0 0.00 0.00 0.00 46 998.3
20260506232508 53 270 0.0 0.0 0.00 0.00 0.00 47 998.3
20260506232349 53 270 0.0 0.0 0.00 0.00 0.00 47 998.3
20260506231508 53 270 0.0 0.0 0.00 0.00 0.00 47 998.3
20260506231007 53 270 0.0 0.0 0.00 0.00 0.00 47 998.3
20260506230850 53 225 0.0 0.0 0.00 0.00 0.00 47 998.3
20260506230509 53 225 0.0 0.0 0.00 0.00 0.00 47 998.3
20260506230007 53 248 0.0 0.0 0.00 0.00 0.00 47 998.3
20260506225508 53 270 0.0 0.0 0.00 0.00 0.00 47 998.3
20260506225349 53 270 0.0 0.0 0.00 0.00 0.00 47 998.3
20260506224509 53 248 0.0 0.0 0.00 0.00 0.00 47 998.3
20260506223850 53 270 0.0 0.0 0.00 0.00 0.00 47 998.3
20260506223508 53 225 0.0 0.0 0.00 0.00 0.00 47 998.3
20260506222507 53 248 0.0 0.0 0.00 0.00 0.00 47 998.3
20260506222350 53 270 0.0 0.0 0.00 0.00 0.00 47 998.3
20260506221507 53 270 0.0 0.0 0.00 0.00 0.00 47 998.3
20260506221008 53 293 0.0 0.0 0.00 0.00 0.00 47 998.3
20260506220851 53 293 0.0 0.0 0.00 0.00 0.00 47 998.3
20260506220508 53 293 0.0 0.0 0.00 0.00 0.00 47 998.3
20260506220007 53 270 0.0 0.0 0.00 0.00 0.00 47 998.3
20260506215507 53 248 0.0 0.0 0.00 0.00 0.00 47 998.3
20260506215350 53 248 0.0 0.0 0.00 0.00 0.00 47 998.3
20260506214508 53 315 0.0 0.0 0.00 0.00 0.00 47 998.3
20260506213850 53 293 0.0 0.0 0.00 0.00 0.00 47 998.3
20260506213508 53 270 0.0 0.0 0.00 0.00 0.00 48 998.3
20260506212508 53 270 0.0 0.0 0.00 0.00 0.00 47 998.3
20260506212351 53 293 0.0 0.0 0.00 0.00 0.00 47 998.3
20260506212009 53 225 0.0 0.0 0.00 0.00 0.00 47 998.3
20260506211509 54 315 0.0 0.0 0.00 0.00 0.00 46 998.3
20260506210850 54 203 0.0 0.0 0.00 0.00 0.00 47 998.3
20260506210509 54 270 0.0 0.0 0.00 0.00 0.00 47 998.3
20260506205351 55 225 0.0 0.0 0.00 0.00 0.00 47 998.3
20260506205008 55 270 0.0 0.0 0.00 0.00 0.00 47 998.3
20260506204508 54 293 0.0 0.0 0.00 0.00 0.00 47 998.3
20260506204007 54 248 0.0 0.0 0.00 0.00 0.00 48 998.3
20260506203850 54 270 0.0 0.0 0.00 0.00 0.00 47 998.3
20260506203508 54 225 0.0 0.0 0.00 0.00 0.00 47 998.3
20260506202509 54 270 0.0 0.0 0.00 0.00 0.00 48 998.3
20260506202350 54 315 0.0 0.0 0.00 0.00 0.00 47 998.3
20260506202008 54 270 0.0 0.0 0.00 0.00 0.00 47 998.6
20260506201507 55 270 0.0 0.0 0.00 0.00 0.00 47 998.6
20260506201007 55 293 0.0 0.0 0.00 0.00 0.00 47 998.6
20260506200850 55 293 0.0 0.0 0.00 0.00 0.00 47 998.6
20260506200507 55 315 0.0 0.0 0.00 0.00 0.00 48 998.6
20260506195509 54 270 0.0 0.0 0.00 0.00 0.00 48 998.6
20260506195350 54 270 0.0 0.0 0.00 0.00 0.00 49 998.6
20260506195008 54 270 0.0 0.0 0.00 0.00 0.00 48 998.6
20260506194508 53 315 0.0 0.0 0.00 0.00 0.00 49 998.6
20260506194008 53 248 0.0 0.0 0.00 0.00 0.00 49 998.6
20260506193851 53 293 0.0 0.0 0.00 0.00 0.00 49 998.6
20260506193507 53 248 0.0 0.0 0.00 0.00 0.00 49 998.8
20260506193009 53 248 0.0 0.0 0.00 0.00 0.00 49 998.8
20260506192508 53 293 0.0 0.0 0.00 0.00 0.00 49 998.8
20260506192351 53 315 0.0 0.0 0.00 0.00 0.00 49 998.6
20260506192009 53 293 0.0 0.0 0.00 0.00 0.00 49 998.8
20260506190851 53 23 0.0 0.0 0.00 0.00 0.00 47 998.9
20260506190507 53 338 0.0 0.0 0.00 0.00 0.00 47 998.9
20260506185351 53 270 0.0 0.0 0.00 0.00 0.00 49 998.8
20260506185008 53 270 0.0 0.0 0.00 0.00 0.00 50 998.9
20260506184508 53 270 0.0 0.0 0.00 0.00 0.00 49 998.9
20260506184009 53 248 0.0 0.0 0.00 0.00 0.00 49 998.9
20260506183850 53 248 0.0 0.0 0.00 0.00 0.00 49 998.9
20260506183509 53 315 0.0 0.0 0.00 0.00 0.00 50 998.9
20260506183008 53 293 0.0 0.0 0.00 0.00 0.00 50 999.1
20260506182350 53 270 0.0 0.0 0.00 0.00 0.00 51 998.9
20260506182009 53 203 0.0 0.0 0.00 0.00 0.00 51 998.9
20260506181008 53 293 0.0 0.0 0.00 0.00 0.00 51 998.9
20260506180849 53 248 0.0 0.0 0.00 0.00 0.00 52 998.9
20260506180508 53 203 0.0 0.0 0.00 0.00 0.00 52 998.9
20260506180007 53 248 0.0 0.0 0.00 0.00 0.00 52 998.9
20260506175508 53 248 0.0 0.0 0.00 0.00 0.00 51 999.1
20260506175349 53 225 0.0 0.0 0.00 0.00 0.00 51 999.2
20260506175008 53 270 0.0 0.0 0.00 0.00 0.00 52 999.3
20260506173850 53 203 0.0 0.0 0.00 0.00 0.00 51 999.3
20260506173508 53 225 0.0 0.0 0.00 0.00 0.00 52 999.3
20260506172508 53 248 0.0 0.0 0.00 0.00 0.00 52 999.3
20260506172349 53 293 0.0 0.0 0.00 0.00 0.00 52 999.3
20260506171509 53 248 0.0 0.0 0.00 0.00 0.00 52 999.3
20260506171008 53 180 0.0 0.0 0.00 0.00 0.00 53 999.3
20260506170849 53 203 0.0 0.0 0.00 0.00 0.00 52 999.3
20260506170508 53 248 0.0 0.0 0.00 0.00 0.00 52 999.3
20260506165350 54 270 0.0 0.0 0.00 0.00 0.00 53 999.3
20260506165009 54 293 0.0 0.0 0.00 0.00 0.00 53 999.3
20260506164509 54 225 0.0 0.0 0.00 0.00 0.00 54 999.4
20260506163850 53 270 0.0 0.0 0.00 0.00 0.00 57 999.5
20260506163507 52 338 0.0 0.0 0.00 0.00 0.00 54 999.5
20260506163008 52 270 0.0 0.0 0.00 0.00 0.00 54 999.6
20260506162508 52 293 0.0 0.0 0.00 0.00 0.00 55 999.6
20260506162350 52 338 0.0 0.0 0.00 0.00 0.00 56 999.6
20260506162009 52 293 0.0 0.0 0.00 0.00 0.00 55 999.6
20260506161008 52 338 0.0 0.0 0.00 0.00 0.00 56 999.6
20260506160851 51 315 0.0 0.0 0.00 0.00 0.00 57 999.6
20260506160507 51 270 0.0 0.0 0.00 0.00 0.00 58 999.6
20260506160008 50 338 0.0 0.0 0.00 0.00 0.00 60 999.7
20260506155507 49 338 0.0 0.0 0.00 0.00 0.00 60 999.6
20260506155350 49 338 0.0 0.0 0.00 0.00 0.00 60 999.6
20260506155009 49 158 0.0 0.0 0.00 0.00 0.00 60 999.6
20260506154508 48 203 0.0 0.0 0.00 0.00 0.00 61 999.9
20260506154008 48 0 0.0 0.0 0.00 0.00 0.00 61 1000.0
20260506153849 47 293 0.0 0.0 0.00 0.00 0.00 62 1000.0
20260506153508 47 293 0.0 0.0 0.00 0.00 0.00 62 1000.0
20260506153009 47 293 0.0 0.0 0.00 0.00 0.00 62 1000.0
20260506152507 47 180 0.0 0.0 0.00 0.00 0.00 62 1000.0
20260506152350 46 270 0.0 0.0 0.00 0.00 0.00 63 999.9
20260506152008 46 270 0.0 0.0 0.00 0.00 0.00 63 999.6
20260506151508 46 270 0.0 0.0 0.00 0.00 0.00 62 999.9
20260506151008 46 270 0.0 0.0 0.00 0.00 0.00 62 999.7
20260506150849 46 270 0.0 0.0 0.00 0.00 0.00 62 999.6
20260506150009 46 270 0.0 0.0 0.00 0.00 0.00 62 1000.0
20260506145509 46 315 0.0 0.0 0.00 0.00 0.00 62 1000.0
20260506145351 46 293 0.0 0.0 0.00 0.00 0.00 62 999.9
20260506144508 46 270 0.0 0.0 0.00 0.00 0.00 62 1000.0
20260506143851 46 338 0.0 0.0 0.00 0.00 0.00 64 999.8
20260506143508 46 338 0.0 0.0 0.00 0.00 0.00 64 999.6
20260506143009 46 315 0.0 0.0 0.00 0.00 0.00 64 999.6
20260506142349 46 338 0.0 0.0 0.00 0.00 0.00 65 999.6
20260506142008 46 338 0.0 0.0 0.00 0.00 0.00 65 999.6
20260506141509 45 45 0.0 0.0 0.00 0.00 0.00 67 999.6
20260506141008 45 23 0.0 0.0 0.00 0.00 0.00 68 999.6
20260506140851 45 338 0.0 0.0 0.00 0.00 0.00 68 999.6
20260506140509 44 0 0.0 0.0 0.00 0.00 0.00 67 999.6
20260506135509 44 23 0.0 0.0 0.00 0.00 0.00 68 999.6
20260506135350 44 45 0.0 0.0 0.00 0.00 0.00 67 999.6
20260506135009 44 45 0.0 0.0 0.00 0.00 0.00 69 999.6
20260506134007 44 315 0.0 0.0 0.00 0.00 0.00 70 999.6
20260506133850 44 315 0.0 0.0 0.00 0.00 0.00 70 999.4
20260506133508 44 315 0.0 0.0 0.00 0.00 0.00 70 999.5
20260506132508 43 315 0.0 0.0 0.00 0.00 0.00 70 999.3
20260506132349 43 315 0.0 0.0 0.00 0.00 0.00 70 999.3
20260506131008 43 338 0.0 0.0 0.00 0.00 0.00 70 999.3
20260506130851 43 338 0.0 0.0 0.00 0.00 0.00 70 999.1
20260506130508 42 315 0.0 0.0 0.00 0.00 0.00 70 999.3
20260506125509 42 338 0.0 0.0 0.00 0.00 0.00 69 999.1
20260506125350 42 0 0.0 0.0 0.00 0.00 0.00 69 999.0
20260506125007 42 23 0.0 0.0 0.00 0.00 0.00 69 998.9
20260506124508 42 68 0.0 0.0 0.00 0.00 0.00 69 998.9
20260506123849 42 23 0.0 0.0 0.00 0.00 0.00 70 998.8
20260506123508 42 23 0.0 0.0 0.00 0.00 0.00 70 998.8
20260506123009 41 0 0.0 0.0 0.00 0.00 0.00 70 998.6
20260506122509 41 0 0.0 0.0 0.00 0.00 0.00 70 998.6
20260506122350 41 23 0.0 0.0 0.00 0.00 0.00 70 998.6
20260506121008 42 90 0.0 0.0 0.00 0.00 0.00 69 998.3
20260506120851 42 90 0.0 0.0 0.00 0.00 0.00 70 998.3
20260506120508 42 0 0.0 0.0 0.00 0.00 0.00 70 998.3
20260506120007 41 45 0.0 0.0 0.00 0.00 0.00 70 998.3
20260506115509 41 45 0.0 0.0 0.00 0.00 0.00 70 998.3
20260506115350 41 338 0.0 0.0 0.00 0.00 0.00 71 998.3
20260506115009 41 45 0.0 0.0 0.00 0.00 0.00 71 998.3
20260506114509 40 0 0.0 0.0 0.00 0.00 0.00 72 998.3
20260506114009 40 0 0.0 0.0 0.00 0.00 0.00 73 998.3
20260506113850 39 315 0.0 0.0 0.00 0.00 0.00 73 998.3
20260506113509 39 338 0.0 0.0 0.00 0.00 0.00 73 998.3
20260506113007 39 315 0.0 0.0 0.00 0.00 0.00 74 998.3
20260506112508 39 315 0.0 0.0 0.00 0.00 0.00 74 998.4
20260506112351 39 315 0.0 0.0 0.00 0.00 0.00 74 998.3
20260506112007 39 338 0.0 0.0 0.00 0.00 0.00 74 998.3
20260506111509 39 338 0.0 0.0 0.00 0.00 0.00 74 998.3
20260506111008 39 338 0.0 0.0 0.00 0.00 0.00 74 998.3
20260506110849 40 338 0.0 0.0 0.00 0.00 0.00 75 998.3
20260506110508 40 338 0.0 0.0 0.00 0.00 0.00 75 998.3
20260506110008 40 338 0.0 0.0 0.00 0.00 0.00 76 997.9
20260506105508 41 0 0.0 0.0 0.00 0.00 0.00 77 997.9
20260506105351 41 315 0.0 0.0 0.00 0.00 0.00 77 997.8
20260506105008 41 45 0.0 0.0 0.00 0.00 0.00 77 997.6
20260506104507 41 338 0.0 0.0 0.00 0.00 0.00 78 997.6
20260506104007 41 23 0.0 0.0 0.00 0.00 0.00 79 997.6
20260506103850 41 293 0.0 0.0 0.00 0.00 0.00 79 997.6
20260506103508 41 293 0.0 0.0 0.00 0.00 0.00 79 997.3
20260506103008 41 45 0.0 0.0 0.00 0.00 0.00 79 997.2
20260506102350 41 68 0.0 0.0 0.00 0.00 0.00 79 997.0
20260506102008 41 90 0.0 0.0 0.00 0.00 0.00 79 996.9
20260506101508 41 90 0.0 0.0 0.00 0.00 0.00 79 996.6
20260506101009 41 68 0.0 0.0 0.00 0.00 0.00 79 996.6
20260506100850 41 68 0.0 0.0 0.00 0.00 0.00 79 996.6
20260506100008 41 68 0.0 0.0 0.00 0.00 0.00 79 996.6
20260506095351 41 113 0.0 0.0 0.00 0.00 0.00 80 996.6
20260506095008 41 90 0.0 0.0 0.00 0.00 0.00 80 996.6
20260506094509 41 90 0.0 0.0 0.00 0.00 0.00 80 996.6
20260506094008 41 90 0.0 0.0 0.00 0.00 0.00 80 996.2
20260506093851 41 90 0.0 0.0 0.00 0.00 0.00 80 996.2
20260506093009 40 68 0.0 0.0 0.00 0.00 0.00 79 996.2
20260506092509 40 68 0.0 0.0 0.00 0.00 0.00 79 996.2
20260506092350 40 68 0.0 0.0 0.00 0.00 0.00 79 996.2
20260506091507 40 68 0.0 0.0 0.00 0.00 0.00 79 995.9
20260506091008 40 68 0.0 0.0 0.00 0.00 0.00 79 995.9
20260506090851 40 23 0.0 0.0 0.00 0.00 0.00 78 996.2
20260506090507 40 23 0.0 0.0 0.00 0.00 0.00 78 995.9
20260506090008 40 23 0.0 0.0 0.00 0.00 0.00 78 996.2
20260506085508 40 23 0.0 0.0 0.00 0.00 0.00 77 996.2
20260506085350 40 23 0.0 0.0 0.00 0.00 0.00 77 996.2
20260506084508 40 23 0.0 0.0 0.00 0.00 0.00 77 996.2
20260506084008 40 23 0.0 0.0 0.00 0.00 0.00 77 996.5
20260506083850 40 23 0.0 0.0 0.00 0.00 0.00 77 996.5
20260506083509 40 23 0.0 0.0 0.00 0.00 0.00 77 996.3
20260506083009 40 23 0.0 0.0 0.00 0.00 0.00 77 996.2
20260506082508 40 23 0.0 0.0 0.00 0.00 0.00 77 996.2
20260506082350 40 23 0.0 0.0 0.00 0.00 0.00 77 996.2
20260506082009 40 23 0.0 0.0 0.00 0.00 0.00 77 996.2
20260506081008 41 23 0.0 0.0 0.00 0.00 0.00 77 996.2
20260506080849 41 23 0.0 0.0 0.00 0.00 0.00 76 996.2
20260506080508 41 23 0.0 0.0 0.00 0.00 0.00 76 996.2
20260506073507 42 23 0.0 0.0 0.00 0.00 0.00 75 995.7
20260506073008 42 23 0.0 0.0 0.00 0.00 0.00 76 995.9
20260506072509 42 23 0.0 0.0 0.00 0.00 0.00 76 995.7
20260506072351 42 23 0.0 0.0 0.00 0.00 0.00 76 995.9
20260506071507 42 23 0.0 0.0 0.00 0.00 0.00 76 995.9
20260506071008 42 23 0.0 0.0 0.00 0.00 0.00 76 995.9
20260506070851 42 23 0.0 0.0 0.00 0.00 0.00 76 996.0
20260506070508 42 23 0.0 0.0 0.00 0.00 0.00 76 995.9
20260506062509 43 23 0.0 0.0 0.00 0.00 0.00 73 995.9
20260506062350 43 23 0.0 0.0 0.00 0.00 0.00 73 995.9
20260506062009 43 23 0.0 0.0 0.00 0.00 0.00 73 995.9
20260506060849 43 23 0.0 0.0 0.00 0.00 0.00 72 996.2
20260506060508 43 23 0.0 0.0 0.00 0.00 0.00 72 995.9
20260506051008 44 45 0.0 0.0 0.00 0.00 0.00 72 995.5
20260506050851 44 45 0.0 0.0 0.00 0.00 0.00 72 995.5
20260506050508 44 45 0.0 0.0 0.00 0.00 0.00 72 995.5
20260506045009 45 45 0.0 0.0 0.00 0.00 0.00 70 995.9
20260506044509 45 45 0.0 0.0 0.00 0.00 0.00 70 995.6
20260506044009 45 45 0.0 0.0 0.00 0.00 0.00 70 995.8
20260506043850 45 45 0.0 0.0 0.00 0.00 0.00 70 995.5
20260506043009 45 45 0.0 0.0 0.00 0.00 0.00 71 995.5
20260506042508 45 45 0.0 0.0 0.00 0.00 0.00 70 995.3
20260506042351 46 45 0.0 0.0 0.00 0.00 0.00 70 995.5
20260506042100 46 45 0.0 0.0 0.00 0.00 0.00 70 995.5
20260506042008 46 45 0.0 0.0 0.00 0.00 0.00 70 995.5
20260506041507 46 23 0.0 0.0 0.00 0.00 0.00 68 995.5
20260506041008 46 23 0.0 0.0 0.00 0.00 0.00 66 995.5
20260506040850 46 23 0.0 0.0 0.00 0.00 0.00 66 995.8
20260506040508 46 23 0.0 0.0 0.00 0.00 0.00 66 995.9
20260506040008 47 23 0.0 0.0 0.00 0.00 0.00 66 995.5
20260506035350 47 0 0.0 0.0 0.00 0.00 0.00 62 995.5
20260506035009 47 0 0.0 0.0 0.00 0.00 0.00 62 995.5
20260506034508 47 0 0.0 0.0 0.00 0.00 0.00 60 995.6
20260506033851 48 338 0.0 0.0 0.00 0.00 0.00 55 995.5
20260506033009 48 338 0.0 0.0 0.00 0.00 0.00 54 995.2
20260506032351 48 338 0.0 0.0 0.00 0.00 0.00 51 995.5
20260506032008 49 315 0.0 0.0 0.00 0.00 0.00 51 995.5